Time,TemperatureF,DewpointF,PressureIn,WindDirection,WindDirectionDegrees,WindSpeedMPH,WindSpeedGustMPH,Humidity,HourlyPrecipIn,Conditions,Clouds,dailyrainin,SoftwareType,DateUTC
2013-03-07 00:00:00,36.7,11.0,29.00,NW,315,0.0,0.0,34,0.00,,---,0.00,VWS V13.01,2013-03-07 05:00:00,
2013-03-07 00:01:00,36.7,11.0,29.00,NW,315,0.0,0.0,34,0.00,,---,0.00,VWS V13.01,2013-03-07 05:01:00,
2013-03-07 00:11:00,37.0,10.6,29.00,NW,315,0.0,0.0,33,0.00,,---,0.00,VWS V13.01,2013-03-07 05:11:00,
2013-03-07 00:16:00,36.9,10.5,29.00,NW,315,0.0,0.0,33,0.00,,---,0.00,VWS V13.01,2013-03-07 05:16:00,
2013-03-07 00:21:00,37.2,10.1,29.00,NW,315,0.0,0.0,32,0.00,,---,0.00,VWS V13.01,2013-03-07 05:21:00,
2013-03-07 00:27:00,37.2,10.1,29.00,NW,315,0.0,0.0,32,0.00,,---,0.00,VWS V13.01,2013-03-07 05:27:00,
2013-03-07 00:32:00,37.4,9.5,29.00,NW,315,0.0,0.0,31,0.00,,---,0.00,VWS V13.01,2013-03-07 05:32:00,
2013-03-07 00:37:00,37.2,10.1,29.00,NW,315,0.0,0.0,32,0.00,,---,0.00,VWS V13.01,2013-03-07 05:37:00,
2013-03-07 00:42:00,37.0,9.9,29.00,NW,315,0.0,0.0,32,0.00,,---,0.00,VWS V13.01,2013-03-07 05:42:00,
2013-03-07 00:47:00,37.0,9.9,29.00,NW,315,0.0,0.0,32,0.00,,---,0.00,VWS V13.01,2013-03-07 05:47:00,
2013-03-07 00:52:00,37.2,10.1,29.00,North,0,0.0,0.0,32,0.00,,---,0.00,VWS V13.01,2013-03-07 05:52:00,
2013-03-07 00:57:00,37.2,10.1,29.00,NNW,338,0.0,0.0,32,0.00,,---,0.00,VWS V13.01,2013-03-07 05:57:00,
2013-03-07 01:02:00,37.2,10.1,29.00,NNW,338,0.0,0.0,32,0.00,,---,0.00,VWS V13.01,2013-03-07 06:02:00,
2013-03-07 01:07:00,37.4,9.5,29.00,NW,315,0.0,0.0,31,0.00,,---,0.00,VWS V13.01,2013-03-07 06:07:00,
2013-03-07 01:12:00,37.2,10.1,29.00,WNW,292,0.0,0.0,32,0.00,,---,0.00,VWS V13.01,2013-03-07 06:12:00,
2013-03-07 01:18:00,37.4,9.5,29.00,North,0,0.0,0.0,31,0.00,,---,0.00,VWS V13.01,2013-03-07 06:18:00,
2013-03-07 01:23:00,37.4,9.5,29.00,North,0,0.0,0.0,31,0.00,,---,0.00,VWS V13.01,2013-03-07 06:23:00,
2013-03-07 01:28:00,37.2,9.4,29.00,North,0,0.0,0.0,31,0.00,,---,0.00,VWS V13.01,2013-03-07 06:28:00,
2013-03-07 01:33:00,37.4,9.5,29.00,North,0,0.0,0.0,31,0.00,,---,0.00,VWS V13.01,2013-03-07 06:33:00,
2013-03-07 01:38:00,37.4,9.5,29.00,NE,45,0.0,0.0,31,0.00,,---,0.00,VWS V13.01,2013-03-07 06:38:00,
2013-03-07 01:43:00,37.4,9.5,29.00,West,270,0.0,0.0,31,0.00,,---,0.00,VWS V13.01,2013-03-07 06:43:00,
2013-03-07 01:48:00,37.4,9.5,29.00,WNW,292,0.0,0.0,31,0.00,,---,0.00,VWS V13.01,2013-03-07 06:48:00,
2013-03-07 01:53:00,37.2,9.4,29.00,NE,45,0.0,0.0,31,0.00,,---,0.00,VWS V13.01,2013-03-07 06:53:00,
2013-03-07 01:58:00,37.2,9.4,29.00,West,270,0.0,0.0,31,0.00,,---,0.00,VWS V13.01,2013-03-07 06:58:00,
2013-03-07 02:03:00,37.2,9.4,29.00,NW,315,0.0,0.0,31,0.00,,---,0.00,VWS V13.01,2013-03-07 07:03:00,
2013-03-07 02:08:00,37.0,9.2,29.00,North,0,0.0,0.0,31,0.00,,---,0.00,VWS V13.01,2013-03-07 07:08:00,
2013-03-07 02:13:00,37.2,9.4,29.00,North,0,0.0,0.0,31,0.00,,---,0.00,VWS V13.01,2013-03-07 07:13:00,
2013-03-07 02:19:00,37.2,9.4,29.00,North,0,0.0,0.0,31,0.00,,---,0.00,VWS V13.01,2013-03-07 07:19:00,
2013-03-07 02:24:00,37.0,9.2,29.00,NE,45,0.0,0.0,31,0.00,,---,0.00,VWS V13.01,2013-03-07 07:24:00,
2013-03-07 02:29:00,37.0,9.2,29.00,North,0,0.0,0.0,31,0.00,,---,0.00,VWS V13.01,2013-03-07 07:29:00,
2013-03-07 02:34:00,37.0,9.2,29.00,North,0,0.0,0.0,31,0.00,,---,0.00,VWS V13.01,2013-03-07 07:34:00,
2013-03-07 02:39:00,37.0,9.2,29.00,NW,315,0.0,0.0,31,0.00,,---,0.00,VWS V13.01,2013-03-07 07:39:00,
2013-03-07 02:44:00,37.0,9.2,29.00,North,0,0.0,0.0,31,0.00,,---,0.00,VWS V13.01,2013-03-07 07:44:00,
2013-03-07 02:49:00,37.0,9.2,29.00,NE,45,0.0,0.0,31,0.00,,---,0.00,VWS V13.01,2013-03-07 07:49:00,
2013-03-07 02:55:00,37.0,9.2,29.00,NE,45,0.0,0.0,31,0.00,,---,0.00,VWS V13.01,2013-03-07 07:55:00,
2013-03-07 03:00:00,37.2,9.4,29.00,NNW,338,0.0,0.0,31,0.00,,---,0.00,VWS V13.01,2013-03-07 08:00:00,
2013-03-07 03:05:00,37.0,9.2,29.00,NE,45,0.0,0.0,31,0.00,,---,0.00,VWS V13.01,2013-03-07 08:05:00,
2013-03-07 03:10:00,37.0,9.2,29.00,SE,135,0.0,0.0,31,0.00,,---,0.00,VWS V13.01,2013-03-07 08:10:00,
2013-03-07 03:15:00,36.9,9.1,29.00,North,0,0.0,0.0,31,0.04,,---,0.04,VWS V13.01,2013-03-07 08:15:00,
2013-03-07 03:20:00,36.9,9.1,29.00,NE,45,0.0,0.0,31,0.04,,---,0.04,VWS V13.01,2013-03-07 08:20:00,
2013-03-07 03:26:00,37.2,9.4,29.00,North,0,0.0,0.0,31,0.04,,---,0.04,VWS V13.01,2013-03-07 08:26:00,
2013-03-07 03:31:00,37.2,9.4,29.00,WNW,292,0.0,0.0,31,0.04,,---,0.04,VWS V13.01,2013-03-07 08:31:00,
2013-03-07 03:36:00,37.2,9.4,29.00,North,0,0.0,0.0,31,0.04,,---,0.04,VWS V13.01,2013-03-07 08:36:00,
2013-03-07 03:41:00,37.0,9.2,29.00,North,0,0.0,0.0,31,0.04,,---,0.04,VWS V13.01,2013-03-07 08:41:00,
2013-03-07 03:46:00,36.9,9.1,29.00,North,0,0.0,0.0,31,0.04,,---,0.04,VWS V13.01,2013-03-07 08:46:00,
2013-03-07 03:52:00,36.9,9.1,29.00,North,0,0.0,0.0,31,0.04,,---,0.04,VWS V13.01,2013-03-07 08:52:00,
2013-03-07 03:57:00,36.9,9.1,29.00,NE,45,0.0,0.0,31,0.04,,---,0.04,VWS V13.01,2013-03-07 08:57:00,
2013-03-07 04:03:00,36.9,9.1,29.00,NE,45,0.0,0.0,31,0.04,,---,0.04,VWS V13.01,2013-03-07 09:03:00,
2013-03-07 04:08:00,36.7,8.9,29.00,NE,45,0.0,0.0,31,0.04,,---,0.04,VWS V13.01,2013-03-07 09:08:00,
2013-03-07 04:13:00,36.5,8.8,29.00,North,0,0.0,0.0,31,0.04,,---,0.04,VWS V13.01,2013-03-07 09:13:00,
2013-03-07 04:18:00,36.9,9.1,29.00,ENE,68,0.0,0.0,31,0.04,,---,0.04,VWS V13.01,2013-03-07 09:18:00,
2013-03-07 04:23:00,36.7,8.9,29.00,ENE,68,0.0,0.0,31,0.00,,---,0.04,VWS V13.01,2013-03-07 09:23:00,
2013-03-07 04:28:00,36.5,9.5,29.00,ENE,68,0.0,0.0,32,0.00,,---,0.04,VWS V13.01,2013-03-07 09:28:00,
2013-03-07 04:33:00,36.7,8.9,29.00,NNE,22,0.0,0.0,31,0.00,,---,0.04,VWS V13.01,2013-03-07 09:33:00,
2013-03-07 04:38:00,36.7,8.9,29.00,NNE,22,0.0,0.0,31,0.00,,---,0.04,VWS V13.01,2013-03-07 09:38:00,
2013-03-07 04:43:00,36.5,9.5,29.00,WNW,292,0.0,0.0,32,0.00,,---,0.04,VWS V13.01,2013-03-07 09:43:00,
2013-03-07 04:49:00,36.5,8.8,29.00,NW,315,0.0,0.0,31,0.00,,---,0.04,VWS V13.01,2013-03-07 09:49:00,
2013-03-07 04:54:00,36.7,8.9,29.03,NNW,338,0.0,0.0,31,0.00,,---,0.04,VWS V13.01,2013-03-07 09:54:00,
2013-03-07 04:59:00,36.7,8.9,29.03,WNW,292,0.0,0.0,31,0.00,,---,0.04,VWS V13.01,2013-03-07 09:59:00,
2013-03-07 05:05:00,36.9,9.1,29.03,SW,225,0.0,0.0,31,0.00,,---,0.04,VWS V13.01,2013-03-07 10:05:00,
2013-03-07 05:10:00,36.9,9.1,29.03,NW,315,0.0,0.0,31,0.00,,---,0.04,VWS V13.01,2013-03-07 10:10:00,
2013-03-07 05:15:00,36.9,9.1,29.03,NW,315,0.0,0.0,31,0.00,,---,0.04,VWS V13.01,2013-03-07 10:15:00,
2013-03-07 05:20:00,36.7,8.9,29.03,NW,315,0.0,0.0,31,0.00,,---,0.04,VWS V13.01,2013-03-07 10:20:00,
2013-03-07 05:25:00,36.3,8.6,29.03,NW,315,0.0,0.0,31,0.00,,---,0.04,VWS V13.01,2013-03-07 10:25:00,
2013-03-07 05:31:00,36.3,8.6,29.03,NW,315,0.0,0.0,31,0.00,,---,0.04,VWS V13.01,2013-03-07 10:31:00,
2013-03-07 05:36:00,36.1,9.1,29.03,North,0,0.0,0.0,32,0.00,,---,0.04,VWS V13.01,2013-03-07 10:36:00,
2013-03-07 05:41:00,36.3,8.6,29.00,North,0,0.0,0.0,31,0.00,,---,0.04,VWS V13.01,2013-03-07 10:41:00,
2013-03-07 05:47:00,36.3,8.6,29.00,North,0,0.0,0.0,31,0.00,,---,0.04,VWS V13.01,2013-03-07 10:47:00,
2013-03-07 05:52:00,36.1,8.4,29.00,WSW,248,0.0,0.0,31,0.00,,---,0.04,VWS V13.01,2013-03-07 10:52:00,
2013-03-07 05:57:00,36.1,8.4,29.00,North,0,0.0,0.0,31,0.00,,---,0.04,VWS V13.01,2013-03-07 10:57:00,
2013-03-07 06:02:00,36.1,8.4,29.00,North,0,0.0,0.0,31,0.00,,---,0.04,VWS V13.01,2013-03-07 11:02:00,
2013-03-07 06:08:00,36.3,9.3,29.00,North,0,0.0,0.0,32,0.00,,---,0.04,VWS V13.01,2013-03-07 11:08:00,
2013-03-07 06:13:00,36.1,9.1,29.00,North,0,0.0,0.0,32,0.00,,---,0.04,VWS V13.01,2013-03-07 11:13:00,
2013-03-07 06:18:00,36.1,9.1,29.00,West,270,0.0,0.0,32,0.00,,---,0.04,VWS V13.01,2013-03-07 11:18:00,
2013-03-07 06:24:00,36.1,9.1,29.03,NW,315,0.0,0.0,32,0.00,,---,0.04,VWS V13.01,2013-03-07 11:24:00,
2013-03-07 06:29:00,36.1,9.1,29.03,NW,315,0.0,0.0,32,0.00,,---,0.04,VWS V13.01,2013-03-07 11:29:00,
2013-03-07 06:34:00,36.1,9.1,29.03,NW,315,0.0,0.0,32,0.00,,---,0.04,VWS V13.01,2013-03-07 11:34:00,
2013-03-07 06:39:00,36.1,9.1,29.03,NW,315,0.0,0.0,32,0.00,,---,0.04,VWS V13.01,2013-03-07 11:39:00,
2013-03-07 06:45:00,36.1,9.1,29.03,North,0,0.0,0.0,32,0.00,,---,0.04,VWS V13.01,2013-03-07 11:45:00,
2013-03-07 06:50:00,36.1,9.1,29.03,East,90,0.0,0.0,32,0.00,,---,0.04,VWS V13.01,2013-03-07 11:50:00,
2013-03-07 06:55:00,36.1,9.1,29.03,East,90,0.0,0.0,32,0.00,,---,0.04,VWS V13.01,2013-03-07 11:55:00,
2013-03-07 07:00:00,36.1,9.8,29.03,NE,45,0.0,0.0,33,0.00,,---,0.04,VWS V13.01,2013-03-07 12:00:00,
2013-03-07 07:05:00,36.1,9.8,29.03,ENE,68,0.0,0.0,33,0.00,,---,0.04,VWS V13.01,2013-03-07 12:05:00,
2013-03-07 07:11:00,36.1,9.8,29.03,ENE,68,0.0,0.0,33,0.00,,---,0.04,VWS V13.01,2013-03-07 12:11:00,
2013-03-07 07:16:00,36.1,9.8,29.03,South,180,0.0,0.0,33,0.00,,---,0.04,VWS V13.01,2013-03-07 12:16:00,
2013-03-07 07:21:00,36.1,9.1,29.03,South,180,0.0,0.0,32,0.00,,---,0.04,VWS V13.01,2013-03-07 12:21:00,
2013-03-07 07:26:00,36.3,9.3,29.03,ENE,68,0.0,0.0,32,0.00,,---,0.04,VWS V13.01,2013-03-07 12:26:00,
2013-03-07 07:31:00,36.3,9.3,29.03,ENE,68,0.0,0.0,32,0.00,,---,0.04,VWS V13.01,2013-03-07 12:31:00,
2013-03-07 07:36:00,36.3,9.3,29.03,North,0,0.0,0.0,32,0.00,,---,0.04,VWS V13.01,2013-03-07 12:36:00,
2013-03-07 07:42:00,36.7,9.6,29.03,North,0,0.0,0.0,32,0.00,,---,0.04,VWS V13.01,2013-03-07 12:42:00,
2013-03-07 07:47:00,36.7,9.6,29.03,North,0,0.0,0.0,32,0.00,,---,0.04,VWS V13.01,2013-03-07 12:47:00,
2013-03-07 07:52:00,36.7,9.6,29.06,North,0,0.0,0.0,32,0.00,,---,0.04,VWS V13.01,2013-03-07 12:52:00,
2013-03-07 07:57:00,36.9,9.8,29.06,NNE,22,0.0,0.0,32,0.00,,---,0.04,VWS V13.01,2013-03-07 12:57:00,
2013-03-07 08:02:00,37.0,9.2,29.06,South,180,0.0,0.0,31,0.00,,---,0.04,VWS V13.01,2013-03-07 13:02:00,
2013-03-07 08:08:00,37.0,9.2,29.06,SSW,202,0.0,0.0,31,0.00,,---,0.04,VWS V13.01,2013-03-07 13:08:00,
2013-03-07 08:13:00,37.2,9.4,29.06,ENE,68,0.0,0.0,31,0.00,,---,0.04,VWS V13.01,2013-03-07 13:13:00,
2013-03-07 08:18:00,37.4,9.5,29.06,SSW,202,0.0,0.0,31,0.00,,---,0.04,VWS V13.01,2013-03-07 13:18:00,
2013-03-07 08:23:00,37.4,9.5,29.06,ENE,68,0.0,0.0,31,0.00,,---,0.04,VWS V13.01,2013-03-07 13:23:00,
2013-03-07 08:28:00,37.4,9.5,29.06,NE,45,0.0,0.0,31,0.00,,---,0.04,VWS V13.01,2013-03-07 13:28:00,
2013-03-07 08:34:00,37.6,9.7,29.06,ENE,68,0.0,0.0,31,0.00,,---,0.04,VWS V13.01,2013-03-07 13:34:00,
2013-03-07 08:39:00,37.6,9.7,29.06,NNE,22,0.0,0.0,31,0.00,,---,0.04,VWS V13.01,2013-03-07 13:39:00,
2013-03-07 08:44:00,37.9,10.0,29.06,NE,45,0.0,0.0,31,0.00,,---,0.04,VWS V13.01,2013-03-07 13:44:00,
2013-03-07 08:49:00,38.3,10.3,29.06,ENE,68,0.0,0.0,31,0.04,,---,0.08,VWS V13.01,2013-03-07 13:49:00,
2013-03-07 08:54:00,38.5,9.8,29.06,NE,45,0.0,0.0,30,0.04,,---,0.08,VWS V13.01,2013-03-07 13:54:00,
2013-03-07 08:59:00,38.7,9.9,29.06,East,90,0.0,0.0,30,0.04,,---,0.08,VWS V13.01,2013-03-07 13:59:00,
2013-03-07 09:05:00,38.8,10.1,29.06,NE,45,0.0,0.0,30,0.04,,---,0.08,VWS V13.01,2013-03-07 14:05:00,
2013-03-07 09:10:00,38.8,10.1,29.06,SE,135,0.0,0.0,30,0.04,,---,0.08,VWS V13.01,2013-03-07 14:10:00,
2013-03-07 09:15:00,38.8,10.1,29.06,ENE,68,0.0,0.0,30,0.04,,---,0.08,VWS V13.01,2013-03-07 14:15:00,
2013-03-07 09:20:00,38.8,10.1,29.06,WNW,292,0.0,0.0,30,0.04,,---,0.08,VWS V13.01,2013-03-07 14:20:00,
2013-03-07 09:25:00,39.2,10.4,29.06,NE,45,0.0,0.0,30,0.04,,---,0.08,VWS V13.01,2013-03-07 14:25:00,
2013-03-07 09:30:00,39.2,10.4,29.06,East,90,0.0,0.0,30,0.04,,---,0.08,VWS V13.01,2013-03-07 14:30:00,
2013-03-07 09:36:00,39.6,10.7,29.06,East,90,0.0,0.0,30,0.04,,---,0.08,VWS V13.01,2013-03-07 14:36:00,
2013-03-07 09:41:00,39.7,10.9,29.06,ENE,68,0.0,0.0,30,0.08,,---,0.12,VWS V13.01,2013-03-07 14:41:00,
2013-03-07 09:46:00,39.7,10.1,29.06,NE,45,0.0,0.0,29,0.08,,---,0.12,VWS V13.01,2013-03-07 14:46:00,
2013-03-07 09:52:00,40.6,10.9,29.06,NE,45,0.0,0.0,29,0.08,,---,0.12,VWS V13.01,2013-03-07 14:52:00,
2013-03-07 09:57:00,40.6,10.9,29.06,SE,135,0.0,0.0,29,0.08,,---,0.12,VWS V13.01,2013-03-07 14:57:00,
2013-03-07 10:02:00,40.6,10.9,29.06,East,90,0.0,0.0,29,0.08,,---,0.00,VWS V13.01,2013-03-07 15:02:00,
2013-03-07 10:07:00,41.4,10.7,29.06,West,270,0.0,0.0,28,0.04,,---,0.12,VWS V13.01,2013-03-07 15:07:00,
2013-03-07 10:13:00,41.2,10.6,29.06,East,90,0.0,0.0,28,0.04,,---,0.12,VWS V13.01,2013-03-07 15:13:00,
2013-03-07 10:18:00,41.4,10.7,29.06,NE,45,0.0,0.0,28,0.08,,---,0.16,VWS V13.01,2013-03-07 15:18:00,
2013-03-07 10:24:00,41.4,10.7,29.09,West,270,0.0,0.0,28,0.08,,---,0.16,VWS V13.01,2013-03-07 15:24:00,
2013-03-07 10:29:00,41.0,10.4,29.09,North,0,0.0,0.0,28,0.08,,---,0.16,VWS V13.01,2013-03-07 15:29:00,
2013-03-07 10:34:00,41.4,10.7,29.09,SSE,158,0.0,0.0,28,0.08,,---,0.16,VWS V13.01,2013-03-07 15:34:00,
2013-03-07 10:40:00,41.4,10.7,29.09,NNE,22,0.0,0.0,28,0.08,,---,0.16,VWS V13.01,2013-03-07 15:40:00,
2013-03-07 10:45:00,41.5,10.9,29.09,NE,45,0.0,0.0,28,0.04,,---,0.16,VWS V13.01,2013-03-07 15:45:00,
2013-03-07 10:50:00,41.2,10.6,29.09,East,90,0.0,0.0,28,0.04,,---,0.16,VWS V13.01,2013-03-07 15:50:00,
2013-03-07 10:55:00,41.2,10.6,29.09,NNE,22,0.0,0.0,28,0.04,,---,0.16,VWS V13.01,2013-03-07 15:55:00,
2013-03-07 11:00:00,41.0,10.4,29.09,North,0,0.0,0.0,28,0.04,,---,0.16,VWS V13.01,2013-03-07 16:00:00,
2013-03-07 11:05:00,41.0,10.4,29.09,North,0,0.0,0.0,28,0.04,,---,0.16,VWS V13.01,2013-03-07 16:05:00,
2013-03-07 11:10:00,40.8,10.2,29.09,South,180,0.0,0.0,28,0.04,,---,0.16,VWS V13.01,2013-03-07 16:10:00,
2013-03-07 11:16:00,40.5,9.9,29.09,NW,315,0.0,0.0,28,0.04,,---,0.16,VWS V13.01,2013-03-07 16:16:00,
2013-03-07 11:21:00,40.6,10.1,29.09,North,0,0.0,0.0,28,0.04,,---,0.16,VWS V13.01,2013-03-07 16:21:00,
2013-03-07 11:26:00,40.6,10.1,29.09,NE,45,0.0,0.0,28,0.00,,---,0.16,VWS V13.01,2013-03-07 16:26:00,
2013-03-07 11:31:00,40.6,10.1,29.09,NE,45,0.0,0.0,28,0.00,,---,0.16,VWS V13.01,2013-03-07 16:31:00,
2013-03-07 11:36:00,40.6,10.1,29.09,South,180,0.0,0.0,28,0.00,,---,0.16,VWS V13.01,2013-03-07 16:36:00,
2013-03-07 11:41:00,40.6,10.1,29.09,WSW,248,0.0,0.0,28,0.00,,---,0.16,VWS V13.01,2013-03-07 16:41:00,
2013-03-07 11:47:00,40.6,10.1,29.09,NE,45,0.0,0.0,28,0.00,,---,0.16,VWS V13.01,2013-03-07 16:47:00,
2013-03-07 11:52:00,40.5,9.9,29.09,NE,45,0.0,0.0,28,0.00,,---,0.16,VWS V13.01,2013-03-07 16:52:00,
2013-03-07 11:57:00,40.5,8.3,29.09,NE,45,0.0,0.0,26,0.00,,---,0.16,VWS V13.01,2013-03-07 16:57:00,
2013-03-07 12:02:00,40.5,8.3,29.09,North,0,0.0,0.0,26,0.00,,---,0.16,VWS V13.01,2013-03-07 17:02:00,
2013-03-07 12:07:00,40.5,9.9,29.09,SSE,158,0.0,0.0,28,0.00,,---,0.16,VWS V13.01,2013-03-07 17:07:00,
2013-03-07 12:12:00,40.6,8.4,29.09,NW,315,0.0,0.0,26,0.00,,---,0.16,VWS V13.01,2013-03-07 17:12:00,
2013-03-07 12:18:00,40.6,8.4,29.09,SW,225,0.0,0.0,26,0.00,,---,0.16,VWS V13.01,2013-03-07 17:18:00,
2013-03-07 12:23:00,40.5,8.3,29.09,North,0,0.0,0.0,26,0.00,,---,0.16,VWS V13.01,2013-03-07 17:23:00,
2013-03-07 12:28:00,40.5,8.3,29.09,NNW,338,0.0,0.0,26,0.00,,---,0.16,VWS V13.01,2013-03-07 17:28:00,
2013-03-07 12:34:00,40.5,8.3,29.09,SW,225,0.0,0.0,26,0.00,,---,0.16,VWS V13.01,2013-03-07 17:34:00,
2013-03-07 12:39:00,40.3,8.1,29.12,North,0,0.0,0.0,26,0.00,,---,0.16,VWS V13.01,2013-03-07 17:39:00,
2013-03-07 12:44:00,40.3,8.1,29.12,NNE,22,0.0,0.0,26,0.00,,---,0.16,VWS V13.01,2013-03-07 17:44:00,
2013-03-07 12:50:00,40.5,8.3,29.12,NW,315,0.0,0.0,26,0.00,,---,0.16,VWS V13.01,2013-03-07 17:50:00,
2013-03-07 12:55:00,40.8,8.6,29.09,NE,45,0.0,0.0,26,0.00,,---,0.16,VWS V13.01,2013-03-07 17:55:00,
2013-03-07 13:00:00,42.4,10.0,29.09,NNE,22,0.0,0.0,26,0.00,,---,0.16,VWS V13.01,2013-03-07 18:00:00,
2013-03-07 13:05:00,42.4,10.0,29.09,NE,45,0.0,0.0,26,0.00,,---,0.16,VWS V13.01,2013-03-07 18:05:00,
2013-03-07 13:10:00,42.4,10.0,29.09,NE,45,0.0,0.0,26,0.00,,---,0.16,VWS V13.01,2013-03-07 18:10:00,
2013-03-07 13:16:00,41.4,9.1,29.09,NNE,22,0.0,0.0,26,0.00,,---,0.16,VWS V13.01,2013-03-07 18:16:00,
2013-03-07 13:21:00,42.1,9.7,29.09,North,0,0.0,0.0,26,0.00,,---,0.16,VWS V13.01,2013-03-07 18:21:00,
2013-03-07 13:26:00,41.5,9.2,29.09,NE,45,0.0,0.0,26,0.00,,---,0.16,VWS V13.01,2013-03-07 18:26:00,
2013-03-07 13:31:00,41.0,8.8,29.09,North,0,0.0,0.0,26,0.00,,---,0.16,VWS V13.01,2013-03-07 18:31:00,
2013-03-07 13:36:00,41.0,8.8,29.09,NE,45,0.0,0.0,26,0.00,,---,0.16,VWS V13.01,2013-03-07 18:36:00,
2013-03-07 13:41:00,41.7,9.4,29.09,WNW,292,4.9,4.9,26,0.00,,---,0.16,VWS V13.01,2013-03-07 18:41:00,
2013-03-07 13:46:00,43.7,10.2,29.09,West,270,5.4,6.3,25,0.00,,---,0.16,VWS V13.01,2013-03-07 18:46:00,
2013-03-07 13:52:00,44.4,10.8,29.09,NE,45,8.7,9.6,25,0.00,,---,0.16,VWS V13.01,2013-03-07 18:52:00,
2013-03-07 13:57:00,44.1,10.5,29.09,ENE,68,3.6,9.6,25,0.00,,---,0.16,VWS V13.01,2013-03-07 18:57:00,
2013-03-07 14:02:00,44.1,8.6,29.09,North,0,5.8,9.6,23,0.00,,---,0.16,VWS V13.01,2013-03-07 19:02:00,
2013-03-07 14:07:00,44.1,8.6,29.09,WNW,292,3.6,6.3,23,0.00,,---,0.16,VWS V13.01,2013-03-07 19:07:00,
2013-03-07 14:12:00,43.3,8.0,29.09,North,0,5.4,9.6,23,0.00,,---,0.16,VWS V13.01,2013-03-07 19:12:00,
2013-03-07 14:17:00,42.1,7.0,29.09,NNE,22,2.7,10.1,23,0.00,,---,0.16,VWS V13.01,2013-03-07 19:17:00,
2013-03-07 14:22:00,40.6,8.4,29.09,East,90,3.1,3.1,26,0.00,,---,0.16,VWS V13.01,2013-03-07 19:22:00,
2013-03-07 14:27:00,40.6,8.4,29.09,NE,45,8.7,8.7,26,0.00,,---,0.16,VWS V13.01,2013-03-07 19:27:00,
2013-03-07 14:33:00,40.6,8.4,29.09,South,180,4.0,8.7,26,0.00,,---,0.16,VWS V13.01,2013-03-07 19:33:00,
2013-03-07 14:38:00,41.0,8.8,29.09,East,90,3.6,8.7,26,0.00,,---,0.16,VWS V13.01,2013-03-07 19:38:00,
2013-03-07 14:43:00,41.0,8.8,29.09,NE,45,8.3,8.3,26,0.00,,---,0.16,VWS V13.01,2013-03-07 19:43:00,
2013-03-07 14:48:00,41.2,8.9,29.09,NE,45,2.7,8.3,26,0.00,,---,0.16,VWS V13.01,2013-03-07 19:48:00,
2013-03-07 14:54:00,41.4,9.1,29.09,East,90,0.0,8.3,26,0.00,,---,0.16,VWS V13.01,2013-03-07 19:54:00,
2013-03-07 14:59:00,41.9,6.8,29.09,NE,45,0.0,8.3,23,0.00,,---,0.16,VWS V13.01,2013-03-07 19:59:00,
2013-03-07 15:04:00,41.9,6.8,29.09,East,90,0.0,0.0,23,0.00,,---,0.16,VWS V13.01,2013-03-07 20:04:00,
2013-03-07 15:09:00,41.2,8.9,29.09,NE,45,0.0,0.0,26,0.00,,---,0.16,VWS V13.01,2013-03-07 20:09:00,
2013-03-07 15:14:00,41.0,6.1,29.09,NE,45,0.0,0.0,23,0.00,,---,0.16,VWS V13.01,2013-03-07 20:14:00,
2013-03-07 15:20:00,41.2,6.2,29.09,NE,45,0.0,0.0,23,0.00,,---,0.16,VWS V13.01,2013-03-07 20:20:00,
2013-03-07 15:25:00,41.0,8.8,29.09,NNE,22,0.0,0.0,26,0.00,,---,0.16,VWS V13.01,2013-03-07 20:25:00,
2013-03-07 15:30:00,41.0,8.8,29.09,NE,45,0.0,0.0,26,0.00,,---,0.16,VWS V13.01,2013-03-07 20:30:00,
2013-03-07 15:35:00,41.7,9.4,29.09,North,0,0.0,0.0,26,0.00,,---,0.16,VWS V13.01,2013-03-07 20:35:00,
2013-03-07 15:40:00,41.9,9.5,29.09,West,270,0.0,0.0,26,0.00,,---,0.16,VWS V13.01,2013-03-07 20:40:00,
2013-03-07 15:45:00,42.1,9.7,29.09,NE,45,0.0,0.0,26,0.00,,---,0.16,VWS V13.01,2013-03-07 20:45:00,
2013-03-07 15:50:00,41.7,9.4,29.09,North,0,0.0,0.0,26,0.00,,---,0.16,VWS V13.01,2013-03-07 20:50:00,
2013-03-07 15:56:00,41.5,6.5,29.09,West,270,0.0,0.0,23,0.00,,---,0.16,VWS V13.01,2013-03-07 20:56:00,
2013-03-07 16:01:00,41.5,6.5,29.09,NNE,22,0.0,0.0,23,0.00,,---,0.16,VWS V13.01,2013-03-07 21:01:00,
2013-03-07 16:06:00,41.2,8.9,29.09,NW,315,0.0,0.0,26,0.00,,---,0.16,VWS V13.01,2013-03-07 21:06:00,
2013-03-07 16:11:00,41.0,6.1,29.09,North,0,0.0,0.0,23,0.00,,---,0.16,VWS V13.01,2013-03-07 21:11:00,
2013-03-07 16:16:00,40.8,5.9,29.09,NNE,22,0.0,0.0,23,0.00,,---,0.16,VWS V13.01,2013-03-07 21:16:00,
2013-03-07 16:21:00,40.8,8.6,29.09,NE,45,0.0,0.0,26,0.00,,---,0.16,VWS V13.01,2013-03-07 21:21:00,
2013-03-07 16:26:00,40.6,8.4,29.09,North,0,0.0,0.0,26,0.00,,---,0.16,VWS V13.01,2013-03-07 21:26:00,
2013-03-07 16:31:00,40.6,8.4,29.09,ENE,68,0.0,0.0,26,0.00,,---,0.16,VWS V13.01,2013-03-07 21:31:00,
2013-03-07 16:37:00,40.3,8.1,29.09,NE,45,0.0,0.0,26,0.00,,---,0.16,VWS V13.01,2013-03-07 21:37:00,
2013-03-07 16:42:00,40.1,8.0,29.09,NE,45,0.0,0.0,26,0.00,,---,0.16,VWS V13.01,2013-03-07 21:42:00,
2013-03-07 16:47:00,40.1,8.0,29.09,East,90,0.0,0.0,26,0.00,,---,0.16,VWS V13.01,2013-03-07 21:47:00,
2013-03-07 16:52:00,40.3,8.1,29.09,SE,135,0.0,0.0,26,0.00,,---,0.16,VWS V13.01,2013-03-07 21:52:00,
2013-03-07 16:57:00,40.6,8.4,29.09,NE,45,0.0,0.0,26,0.00,,---,0.16,VWS V13.01,2013-03-07 21:57:00,
2013-03-07 17:02:00,40.8,8.6,29.09,NW,315,0.0,0.0,26,0.00,,---,0.16,VWS V13.01,2013-03-07 22:02:00,
2013-03-07 17:08:00,41.2,8.9,29.09,NW,315,0.0,0.0,26,0.00,,---,0.16,VWS V13.01,2013-03-07 22:08:00,
2013-03-07 17:13:00,40.8,8.6,29.09,West,270,0.0,0.0,26,0.00,,---,0.16,VWS V13.01,2013-03-07 22:13:00,
2013-03-07 17:18:00,40.8,8.6,29.09,NNW,338,0.0,0.0,26,0.00,,---,0.16,VWS V13.01,2013-03-07 22:18:00,
2013-03-07 17:23:00,40.5,8.3,29.09,North,0,0.0,0.0,26,0.00,,---,0.16,VWS V13.01,2013-03-07 22:23:00,
2013-03-07 17:28:00,40.3,8.1,29.09,East,90,0.0,0.0,26,0.00,,---,0.16,VWS V13.01,2013-03-07 22:28:00,
2013-03-07 17:33:00,40.3,8.1,29.09,NW,315,0.0,0.0,26,0.00,,---,0.16,VWS V13.01,2013-03-07 22:33:00,
2013-03-07 17:39:00,40.1,8.0,29.09,North,0,0.0,0.0,26,0.00,,---,0.16,VWS V13.01,2013-03-07 22:39:00,
2013-03-07 17:44:00,39.9,7.8,29.09,North,0,0.0,0.0,26,0.00,,---,0.16,VWS V13.01,2013-03-07 22:44:00,
2013-03-07 17:49:00,39.9,7.8,29.09,North,0,0.0,0.0,26,0.00,,---,0.16,VWS V13.01,2013-03-07 22:49:00,
2013-03-07 17:54:00,39.7,7.7,29.09,NNE,22,0.0,0.0,26,0.00,,---,0.16,VWS V13.01,2013-03-07 22:54:00,
2013-03-07 17:59:00,39.7,7.7,29.09,North,0,0.0,0.0,26,0.00,,---,0.16,VWS V13.01,2013-03-07 22:59:00,
2013-03-07 18:04:00,39.6,7.5,29.09,WNW,292,0.0,0.0,26,0.00,,---,0.16,VWS V13.01,2013-03-07 23:04:00,
2013-03-07 18:09:00,39.4,7.4,29.12,NE,45,0.0,0.0,26,0.00,,---,0.16,VWS V13.01,2013-03-07 23:09:00,
2013-03-07 18:15:00,39.4,7.4,29.12,NNE,22,0.0,0.0,26,0.00,,---,0.16,VWS V13.01,2013-03-07 23:15:00,
2013-03-07 18:20:00,39.4,7.4,29.12,NNE,22,0.0,0.0,26,0.00,,---,0.16,VWS V13.01,2013-03-07 23:20:00,
2013-03-07 18:25:00,39.4,7.4,29.12,NNW,338,0.0,0.0,26,0.00,,---,0.16,VWS V13.01,2013-03-07 23:25:00,
2013-03-07 18:30:00,39.6,7.5,29.12,North,0,0.0,0.0,26,0.00,,---,0.16,VWS V13.01,2013-03-07 23:30:00,
2013-03-07 18:36:00,39.4,7.4,29.12,South,180,0.0,0.0,26,0.00,,---,0.16,VWS V13.01,2013-03-07 23:36:00,
2013-03-07 18:41:00,39.4,7.4,29.12,West,270,0.0,0.0,26,0.00,,---,0.16,VWS V13.01,2013-03-07 23:41:00,
2013-03-07 18:46:00,39.0,7.1,29.12,North,0,0.0,0.0,26,0.00,,---,0.16,VWS V13.01,2013-03-07 23:46:00,
2013-03-07 18:51:00,38.8,6.9,29.12,NE,45,0.0,0.0,26,0.00,,---,0.16,VWS V13.01,2013-03-07 23:51:00,
2013-03-07 18:57:00,38.5,9.0,29.12,NNE,22,0.0,0.0,29,0.00,,---,0.16,VWS V13.01,2013-03-07 23:57:00,
2013-03-07 19:02:00,38.3,8.8,29.12,North,0,0.0,0.0,29,0.00,,---,0.16,VWS V13.01,2013-03-08 00:02:00,
2013-03-07 19:07:00,37.9,8.5,29.12,East,90,0.0,0.0,29,0.00,,---,0.16,VWS V13.01,2013-03-08 00:07:00,
2013-03-07 19:12:00,37.6,9.0,29.12,SE,135,0.0,0.0,30,0.00,,---,0.16,VWS V13.01,2013-03-08 00:12:00,
2013-03-07 19:17:00,37.8,9.1,29.12,NNE,22,0.0,0.0,30,0.00,,---,0.16,VWS V13.01,2013-03-08 00:17:00,
2013-03-07 19:22:00,37.6,9.0,29.12,East,90,0.0,0.0,30,0.00,,---,0.16,VWS V13.01,2013-03-08 00:22:00,
2013-03-07 19:27:00,37.6,9.0,29.12,NW,315,0.0,0.0,30,0.00,,---,0.16,VWS V13.01,2013-03-08 00:27:00,
2013-03-07 19:33:00,37.6,9.0,29.12,NE,45,0.0,0.0,30,0.00,,---,0.16,VWS V13.01,2013-03-08 00:33:00,
2013-03-07 19:38:00,37.6,9.0,29.12,NNE,22,0.0,0.0,30,0.00,,---,0.16,VWS V13.01,2013-03-08 00:38:00,
2013-03-07 19:43:00,37.8,9.1,29.12,East,90,0.0,0.0,30,0.00,,---,0.16,VWS V13.01,2013-03-08 00:43:00,
2013-03-07 19:48:00,37.6,9.7,29.12,NW,315,0.0,0.0,31,0.00,,---,0.16,VWS V13.01,2013-03-08 00:48:00,
2013-03-07 19:53:00,37.6,9.7,29.12,North,0,0.0,0.0,31,0.00,,---,0.16,VWS V13.01,2013-03-08 00:53:00,
2013-03-07 19:58:00,37.6,9.7,29.12,NE,45,0.0,0.0,31,0.00,,---,0.16,VWS V13.01,2013-03-08 00:58:00,
2013-03-07 20:03:00,37.4,10.9,29.12,North,0,0.0,0.0,33,0.00,,---,0.16,VWS V13.01,2013-03-08 01:03:00,
2013-03-07 20:08:00,37.4,10.9,29.12,SW,225,0.0,0.0,33,0.00,,---,0.16,VWS V13.01,2013-03-08 01:08:00,
2013-03-07 20:13:00,37.2,12.1,29.12,NE,45,0.0,0.0,35,0.00,,---,0.16,VWS V13.01,2013-03-08 01:13:00,
2013-03-07 20:18:00,37.0,12.6,29.12,North,0,0.0,0.0,36,0.00,,---,0.16,VWS V13.01,2013-03-08 01:18:00,
2013-03-07 20:24:00,36.9,13.0,29.12,NE,45,0.0,0.0,37,0.00,,---,0.16,VWS V13.01,2013-03-08 01:24:00,
2013-03-07 20:29:00,36.9,13.0,29.12,West,270,0.0,0.0,37,0.00,,---,0.16,VWS V13.01,2013-03-08 01:29:00,
2013-03-07 20:34:00,36.7,13.5,29.12,NW,315,0.0,0.0,38,0.00,,---,0.16,VWS V13.01,2013-03-08 01:34:00,
2013-03-07 20:39:00,36.5,13.9,29.12,North,0,0.0,0.0,39,0.00,,---,0.16,VWS V13.01,2013-03-08 01:39:00,
2013-03-07 20:44:00,36.3,13.8,29.12,NE,45,0.0,0.0,39,0.00,,---,0.16,VWS V13.01,2013-03-08 01:44:00,
2013-03-07 20:49:00,36.3,13.8,29.12,West,270,0.0,0.0,39,0.00,,---,0.16,VWS V13.01,2013-03-08 01:49:00,
2013-03-07 20:54:00,36.3,13.8,29.12,North,0,0.0,0.0,39,0.00,,---,0.16,VWS V13.01,2013-03-08 01:54:00,
2013-03-07 21:00:00,36.1,13.6,29.12,North,0,0.0,0.0,39,0.00,,---,0.16,VWS V13.01,2013-03-08 02:00:00,
2013-03-07 21:05:00,36.1,14.2,29.12,NNW,338,0.0,0.0,40,0.00,,---,0.16,VWS V13.01,2013-03-08 02:05:00,
2013-03-07 21:10:00,36.1,13.6,29.12,NE,45,2.7,3.6,39,0.00,,---,0.16,VWS V13.01,2013-03-08 02:10:00,
2013-03-07 21:15:00,36.1,14.2,29.12,NW,315,3.1,7.6,40,0.00,,---,0.16,VWS V13.01,2013-03-08 02:15:00,
2013-03-07 21:20:00,36.1,14.2,29.12,NE,45,3.6,7.6,40,0.00,,---,0.16,VWS V13.01,2013-03-08 02:20:00,
2013-03-07 21:25:00,36.1,13.6,29.14,NNW,338,6.3,6.3,39,0.00,,---,0.16,VWS V13.01,2013-03-08 02:25:00,
2013-03-07 21:31:00,35.8,13.8,29.14,North,0,4.9,8.3,40,0.00,,---,0.16,VWS V13.01,2013-03-08 02:31:00,
2013-03-07 21:36:00,35.8,13.8,29.12,North,0,4.9,8.3,40,0.00,,---,0.16,VWS V13.01,2013-03-08 02:36:00,
2013-03-07 21:41:00,35.8,13.3,29.12,NE,45,3.6,8.3,39,0.00,,---,0.16,VWS V13.01,2013-03-08 02:41:00,
2013-03-07 21:46:00,35.8,13.3,29.12,NNW,338,2.7,4.0,39,0.00,,---,0.16,VWS V13.01,2013-03-08 02:46:00,
2013-03-07 21:51:00,35.8,13.3,29.12,North,0,3.1,4.0,39,0.00,,---,0.16,VWS V13.01,2013-03-08 02:51:00,
2013-03-07 21:56:00,35.8,13.3,29.12,North,0,0.0,6.3,39,0.00,,---,0.16,VWS V13.01,2013-03-08 02:56:00,
2013-03-07 22:01:00,35.8,12.1,29.12,North,0,0.0,6.3,37,0.00,,---,0.16,VWS V13.01,2013-03-08 03:01:00,
2013-03-07 22:06:00,36.0,12.2,29.12,West,270,0.0,0.0,37,0.00,,---,0.16,VWS V13.01,2013-03-08 03:06:00,
2013-03-07 22:12:00,36.1,11.8,29.12,NE,45,0.0,0.0,36,0.00,,---,0.16,VWS V13.01,2013-03-08 03:12:00,
2013-03-07 22:17:00,36.0,12.2,29.12,NNW,338,0.0,0.0,37,0.00,,---,0.16,VWS V13.01,2013-03-08 03:17:00,
2013-03-07 22:22:00,35.8,12.1,29.12,NW,315,0.0,0.0,37,0.00,,---,0.16,VWS V13.01,2013-03-08 03:22:00,
2013-03-07 22:27:00,35.8,11.4,29.12,West,270,0.0,0.0,36,0.00,,---,0.16,VWS V13.01,2013-03-08 03:27:00,
2013-03-07 22:33:00,35.8,11.4,29.12,North,0,0.0,0.0,36,0.00,,---,0.16,VWS V13.01,2013-03-08 03:33:00,
2013-03-07 22:38:00,35.8,11.4,29.12,NW,315,0.0,0.0,36,0.00,,---,0.16,VWS V13.01,2013-03-08 03:38:00,
2013-03-07 22:43:00,35.8,11.4,29.12,NNW,338,0.0,0.0,36,0.00,,---,0.16,VWS V13.01,2013-03-08 03:43:00,
2013-03-07 22:48:00,35.8,10.8,29.12,North,0,0.0,0.0,35,0.00,,---,0.16,VWS V13.01,2013-03-08 03:48:00,
2013-03-07 22:54:00,35.6,10.7,29.12,SSW,202,0.0,0.0,35,0.00,,---,0.16,VWS V13.01,2013-03-08 03:54:00,
2013-03-07 22:59:00,35.6,10.0,29.12,WNW,292,0.0,0.0,34,0.00,,---,0.16,VWS V13.01,2013-03-08 03:59:00,
2013-03-07 23:04:00,35.4,10.5,29.12,NW,315,0.0,0.0,35,0.00,,---,0.16,VWS V13.01,2013-03-08 04:04:00,
2013-03-07 23:09:00,35.6,9.4,29.12,North,0,0.0,0.0,33,0.00,,---,0.16,VWS V13.01,2013-03-08 04:09:00,
2013-03-07 23:14:00,35.4,9.9,29.12,North,0,0.0,0.0,34,0.00,,---,0.16,VWS V13.01,2013-03-08 04:14:00,
2013-03-07 23:19:00,35.4,9.2,29.12,NE,45,0.0,0.0,33,0.00,,---,0.16,VWS V13.01,2013-03-08 04:19:00,
2013-03-07 23:24:00,35.6,8.7,29.12,NW,315,0.0,0.0,32,0.00,,---,0.16,VWS V13.01,2013-03-08 04:24:00,
2013-03-07 23:29:00,35.4,9.2,29.12,NW,315,0.0,0.0,33,0.00,,---,0.16,VWS V13.01,2013-03-08 04:29:00,
2013-03-07 23:35:00,35.4,8.5,29.12,NW,315,0.0,0.0,32,0.00,,---,0.16,VWS V13.01,2013-03-08 04:35:00,
2013-03-07 23:40:00,35.4,8.5,29.12,NW,315,0.0,0.0,32,0.00,,---,0.16,VWS V13.01,2013-03-08 04:40:00,
2013-03-07 23:45:00,35.4,8.5,29.12,WNW,292,0.0,0.0,32,0.00,,---,0.16,VWS V13.01,2013-03-08 04:45:00,
2013-03-07 23:51:00,35.4,7.8,29.12,North,0,5.4,8.1,31,0.00,,---,0.16,VWS V13.01,2013-03-08 04:51:00,
2013-03-07 23:56:00,35.2,8.4,29.12,NW,315,4.5,8.1,32,0.00,,---,0.16,VWS V13.01,2013-03-08 04:56:00,